TimePST,TemperatureF,Dew PointF,Humidity,Sea Level PressureIn,VisibilityMPH,Wind Direction,Wind SpeedMPH,Gust SpeedMPH,PrecipitationIn,Events,Conditions,WindDirDegrees,DateUTC
12:41 AM,55.4,44.6,67,30.06,10.0,WSW,8.1,-,N/A,,Overcast,240,2013-02-08 08:41:00
12:51 AM,55.9,44.1,64,30.06,10.0,West,8.1,-,N/A,,Mostly Cloudy,260,2013-02-08 08:51:00
12:53 AM,55.4,44.6,67,30.06,10.0,West,8.1,-,N/A,,Mostly Cloudy,260,2013-02-08 08:53:00
1:51 AM,55.0,44.1,67,30.06,10.0,West,5.8,-,N/A,,Mostly Cloudy,260,2013-02-08 09:51:00
2:51 AM,55.0,45.0,69,30.05,10.0,West,6.9,-,N/A,,Mostly Cloudy,270,2013-02-08 10:51:00
3:51 AM,55.0,41.0,59,30.05,10.0,West,10.4,-,N/A,,Mostly Cloudy,260,2013-02-08 11:51:00
4:51 AM,54.0,37.0,53,30.05,10.0,West,11.5,-,N/A,,Mostly Cloudy,280,2013-02-08 12:51:00
5:51 AM,54.0,37.0,53,30.05,10.0,West,11.5,-,N/A,,Scattered Clouds,260,2013-02-08 13:51:00
6:51 AM,53.1,39.9,61,30.06,10.0,West,10.4,-,0.00,,Mostly Cloudy,270,2013-02-08 14:51:00
7:51 AM,54.0,39.0,57,30.06,10.0,WNW,5.8,-,0.00,,Mostly Cloudy,290,2013-02-08 15:51:00
8:51 AM,54.0,39.9,59,30.07,9.0,West,13.8,24.2,0.00,Rain,Light Rain,280,2013-02-08 16:51:00
9:51 AM,54.0,43.0,66,30.06,10.0,SSW,9.2,-,0.01,,Mostly Cloudy,210,2013-02-08 17:51:00
10:51 AM,55.0,43.0,64,30.06,4.0,West,9.2,-,0.00,Rain,Light Rain,260,2013-02-08 18:51:00
11:51 AM,53.1,44.1,71,30.03,10.0,SW,8.1,-,0.14,,Mostly Cloudy,220,2013-02-08 19:51:00
12:51 PM,55.0,45.0,69,30.00,10.0,SW,12.7,-,N/A,,Mostly Cloudy,230,2013-02-08 20:51:00
1:51 PM,52.0,43.0,71,29.99,7.0,SW,10.4,-,0.03,,Mostly Cloudy,220,2013-02-08 21:51:00
2:51 PM,55.0,39.9,57,29.97,10.0,West,17.3,25.3,N/A,,Mostly Cloudy,260,2013-02-08 22:51:00
3:51 PM,54.0,42.1,64,29.96,10.0,WNW,11.5,-,N/A,,Overcast,300,2013-02-08 23:51:00
4:51 PM,53.1,39.0,59,29.95,10.0,West,13.8,-,N/A,,Mostly Cloudy,260,2013-02-09 00:51:00
5:51 PM,51.1,41.0,68,29.95,10.0,NW,12.7,-,0.00,Rain,Light Rain,320,2013-02-09 01:51:00
6:51 PM,50.0,41.0,71,29.95,10.0,WNW,8.1,-,0.03,,Mostly Cloudy,290,2013-02-09 02:51:00
7:51 PM,51.1,37.9,61,29.95,10.0,WNW,12.7,-,0.00,,Scattered Clouds,290,2013-02-09 03:51:00
8:51 PM,50.0,39.9,68,29.95,10.0,WNW,6.9,-,0.00,,Scattered Clouds,290,2013-02-09 04:51:00
9:51 PM,51.1,39.0,63,29.96,10.0,West,10.4,-,N/A,,Scattered Clouds,260,2013-02-09 05:51:00
10:51 PM,48.9,41.0,74,29.96,10.0,NW,8.1,-,0.02,Rain,Light Rain,320,2013-02-09 06:51:00
11:24 PM,46.4,39.2,76,29.97,6.0,North,5.8,-,0.01,Rain,Heavy Rain,350,2013-02-09 07:24:00
11:38 PM,46.4,39.2,76,29.96,8.0,ESE,4.6,-,0.04,Rain,Light Rain,110,2013-02-09 07:38:00
11:51 PM,46.9,39.9,77,29.97,10.0,East,3.5,-,0.04,,Mostly Cloudy,100,2013-02-09 07:51:00